Flag for U.S.A. Weather past 2 weeks in Virginia Beach, Virginia, U.S.A.

Now
66 °F

Passing clouds.


Feels Like: 66 °F
Forecast: 67 / 84 °F
Wind: No wind

Location: Virginia Beach - Oceana

Current Time: Jul 31, 2014 at 7:09:24 AM

Latest Report: Jul 31, 2014 at 6:56 AM


Visibility: 10 mi

Pressure: 30.12 "Hg

Humidity: 87%

Dew point: 62 °F

Location of Virginia BeachLocation

Historic Weather in Virginia Beach — Graph

°F

Virginia Beach temperature yesterday

Maximum temperature yesterday: 80 °F (at 12:56 PM)
Minimum temperature yesterday: 63 °F (at 1:56 AM)
Average temperature yesterday: 71 °F

Past Weeks' High & Low Weather Summary

 TemperatureHumidityPressure
High90 °F (Jul 23, 3:56 PM)97% (Jul 16, 7:56 AM)30.21 "Hg (Jul 16, 7:56 AM)
Low63 °F (Jul 18, 5:56 AM)42% (Jul 25, 4:56 PM)29.65 "Hg (Jul 28, 3:56 AM)
Average76 °F75%29.99 "Hg
* Reported Jul 16 5:56 AM — Jul 31 5:56 AM, Virginia Beach, Weather by CustomWeather, © 2014

Note: Actual official high and low records may vary slightly from our data, if they occured in-between our weather recording intervals... More about our weather records

Advertising

Virginia Beach weather history for previous 24 hours

 ConditionsComfort  
Time TempWeatherWind HumidityBarometerVisibility
5:56 AM
Jul 31
63 °FPassing clouds.No wind93%30.11 "Hg10 mi
4:56 AM63 °FPassing clouds.No wind93%30.10 "Hg10 mi
3:56 AM65 °FPassing clouds.No wind87%30.09 "Hg10 mi
2:56 AM64 °FClear.No wind90%30.09 "Hg10 mi
1:56 AM66 °FClear.No wind84%30.09 "Hg10 mi
12:56 AM67 °FClear.3 mph81%30.08 "Hg10 mi
11:56 PM
Jul 30
70 °FClear.3 mph73%30.08 "Hg10 mi
10:56 PM68 °FClear.No wind76%30.09 "Hg10 mi
9:56 PM71 °FClear.6 mph68%30.09 "Hg10 mi
8:56 PM72 °FPassing clouds.8 mph66%30.07 "Hg10 mi
7:56 PM72 °FScattered clouds.8 mph66%30.06 "Hg10 mi
6:56 PM74 °FPassing clouds.8 mph60%30.05 "Hg10 mi
5:56 PM76 °FScattered clouds.8 mph52%30.05 "Hg10 mi
4:56 PM77 °FPassing clouds.10 mph47%30.05 "Hg10 mi
3:56 PM77 °FScattered clouds.5 mph47%30.06 "Hg10 mi
2:56 PM77 °FPartly sunny.7 mph47%30.07 "Hg10 mi
1:56 PM77 °FPartly sunny.10 mph45%30.07 "Hg10 mi
12:56 PM80 °FBroken clouds.7 mph44%30.08 "Hg10 mi
11:56 AM78 °FScattered clouds.5 mph43%30.09 "Hg10 mi
10:56 AM77 °FScattered clouds.8 mph47%30.09 "Hg10 mi
9:56 AM76 °FPassing clouds.9 mph48%30.08 "Hg10 mi
8:56 AM74 °FPassing clouds.12 mph56%30.07 "Hg10 mi
Weather by CustomWeather, © 2014

See weather overviewHow to use our weather pages